Weather History for KC75 - February, 2013

Change the Weather History Date:

Tuesday, February 26, 2013

  Actual Average (KPIA) Record (KPIA)
Temperature  
Mean Temperature 32 °F 33 °F  
Max Temperature 34 °F 42 °F 71 °F (1996)
Min Temperature 31 °F 25 °F -13 °F (1963)
Degree Days  
Heating Degree Days 32 32  
Month to date heating degree days 933  
Since 1 July heating degree days 4454  
Cooling Degree Days 0 0  
Month to date cooling degree days 0  
Year to date cooling degree days 0  
Moisture  
Dew Point 30 °F    
Average Humidity 89    
Maximum Humidity 99    
Minimum Humidity 71    
Precipitation  
Precipitation 0.29 in 0.07 in 1.28 in (1928)
Month to date precipitation 1.63  
Year to date precipitation 3.41  
Snow  
Snow 0.00 in 0.10 in 5.50 in (1913)
Month to date snowfall 5.8  
Since 1 July snowfall 20.9  
Snow Depth -    
Sea Level Pressure  
Sea Level Pressure 29.59 in    
Wind  
Wind Speed 14 mph (NNE)    
Max Wind Speed 23 mph    
Max Gust Speed 39 mph    
Visibility 5 miles    
Events Rain , Snow    
T = Trace of Precipitation, MM = Missing Value Source: NWS Daily Summary

Daily Weather History Graph

Daily Weather History Graph

Search for Another Location

Airport or City:

Trip Planner

Search our weather history database for the weather conditions in past years. The results will help you decide how hot, cold, wet, or windy it might be!

Date:

Astronomy

Feb. 26, 2013 Rise Set
Actual Time 6:35 AM CST 5:45 PM CST
Civil Twilight 6:08 AM CST 6:13 PM CST
Nautical Twilight 5:36 AM CST 6:45 PM CST
Astronomical Twilight 5:04 AM CST 7:16 PM CST
Moon 7:03 PM CST (2/26) 6:37 AM CST (2/26)
Length of Visible Light 12h 04m
Length of Day
11h 09m
Full, 99% of the Moon is Illuminated
Feb 26
Full
Mar 4
Last Quarter
Mar 11
New
Mar 19
First Quarter
Mar 27
Full

Hourly Weather History & Observations

Time (CST) Temp. Windchill Dew Point Humidity Pressure Visibility Wind Dir Wind Speed Gust Speed Precip Events Conditions
12:15 AM 34.7 °F 25.1 °F 28.2 °F 77% 29.87 in 10.0 mi NE 15.0 mph 20.7 mph N/A   Clear
12:35 AM 34.5 °F 25.3 °F 28.4 °F 78% 29.86 in 10.0 mi NE 13.8 mph 21.9 mph N/A   Clear
12:55 AM 34.5 °F 25.7 °F 28.4 °F 78% 29.86 in 10.0 mi NE 12.7 mph 18.4 mph N/A   Clear
1:15 AM 34.7 °F 25.9 °F 28.4 °F 78% 29.83 in 10.0 mi NNE 12.7 mph 20.7 mph N/A   Clear
1:35 AM 34.3 °F 24.6 °F 28.4 °F 79% 29.82 in 10.0 mi NE 15.0 mph - N/A   Clear
1:55 AM 34.3 °F 24.6 °F 28.4 °F 79% 29.82 in 10.0 mi NE 15.0 mph 21.9 mph N/A   Clear
2:15 AM 34.2 °F 24.0 °F 28.2 °F 79% 29.78 in 10.0 mi NE 16.1 mph 24.2 mph N/A   Scattered Clouds
2:35 AM 34.3 °F 24.6 °F 28.0 °F 78% 29.76 in 10.0 mi NE 15.0 mph 25.3 mph N/A   Scattered Clouds
2:55 AM 34.3 °F 23.5 °F 27.9 °F 77% 29.74 in 10.0 mi NE 18.4 mph 27.6 mph N/A   Scattered Clouds
3:15 AM 34.5 °F 23.8 °F 27.9 °F 77% 29.73 in 10.0 mi NE 18.4 mph 24.2 mph N/A   Scattered Clouds
3:35 AM 34.7 °F 24.7 °F 27.5 °F 75% 29.71 in 10.0 mi NNE 16.1 mph 25.3 mph N/A   Scattered Clouds
3:55 AM 34.7 °F 24.7 °F 27.3 °F 74% 29.69 in 10.0 mi NE 16.1 mph 26.5 mph N/A   Scattered Clouds
4:15 AM 34.7 °F 24.0 °F 27.3 °F 74% 29.68 in 10.0 mi NE 18.4 mph 26.5 mph N/A   Mostly Cloudy
4:35 AM 34.7 °F 23.7 °F 27.0 °F 73% 29.67 in 10.0 mi NE 19.6 mph 26.5 mph N/A   Mostly Cloudy
4:55 AM 34.7 °F 23.4 °F 26.8 °F 73% 29.65 in 10.0 mi NNE 20.7 mph 27.6 mph N/A   Mostly Cloudy
5:15 AM 34.9 °F 23.6 °F 26.6 °F 72% 29.65 in 10.0 mi NE 20.7 mph 27.6 mph N/A   Mostly Cloudy
5:35 AM 34.7 °F 25.1 °F 26.6 °F 72% 29.68 in 10.0 mi NE 15.0 mph 19.6 mph N/A   Scattered Clouds
5:55 AM 34.7 °F 25.5 °F 27.1 °F 74% 29.68 in 10.0 mi ENE 13.8 mph 20.7 mph N/A   Scattered Clouds
6:15 AM 34.2 °F 24.4 °F 27.3 °F 76% 29.66 in 10.0 mi NE 15.0 mph 21.9 mph N/A   Scattered Clouds
6:35 AM 34.3 °F 22.9 °F 26.2 °F 72% 29.63 in 10.0 mi NE 20.7 mph 28.8 mph N/A   Scattered Clouds
6:55 AM 34.7 °F 24.3 °F 26.1 °F 71% 29.63 in 10.0 mi NE 17.3 mph 33.4 mph N/A   Clear
7:15 AM 34.2 °F 22.3 °F 26.4 °F 73% 29.62 in 7.0 mi NE 21.9 mph 31.1 mph N/A Snow Light Snow
7:35 AM 32.0 °F 19.8 °F 29.7 °F 91% 29.62 in 0.5 mi NE 20.7 mph 39.1 mph N/A Snow Snow
7:55 AM 31.8 °F 19.0 °F 30.2 °F 94% 29.59 in 0.5 mi NNE 23.0 mph 32.2 mph 0.05 in Snow Snow
8:15 AM 32.0 °F 19.5 °F 30.0 °F 92% 29.57 in 2.0 mi NNE 21.9 mph 32.2 mph 0.07 in Snow Snow
8:35 AM 32.2 °F 20.7 °F 30.2 °F 92% 29.55 in 3.0 mi NNE 18.4 mph 25.3 mph 0.10 in Snow Light Snow
8:55 AM 32.7 °F 22.1 °F 29.8 °F 89% 29.55 in 4.0 mi NNE 16.1 mph 23.0 mph 0.13 in Snow Light Snow
9:15 AM 32.9 °F 23.2 °F 29.8 °F 88% 29.58 in 5.0 mi NE 13.8 mph 19.6 mph N/A Rain Light Rain
9:35 AM 32.4 °F 21.7 °F 30.4 °F 92% 29.58 in 0.8 mi NE 16.1 mph 23.0 mph 0.02 in Snow Light Snow
9:55 AM 32.0 °F 22.1 °F 31.1 °F 96% 29.55 in 0.2 mi NNE 13.8 mph 20.7 mph 0.04 in Snow Snow
10:15 AM 32.0 °F 21.2 °F 31.1 °F 96% 29.54 in 0.5 mi NNE 16.1 mph 20.7 mph 0.03 in Snow Light Snow
10:35 AM 32.0 °F 20.5 °F 30.9 °F 96% 29.53 in 0.8 mi NNE 18.4 mph 25.3 mph 0.04 in Snow Light Snow
10:55 AM 32.0 °F 22.5 °F 30.9 °F 96% 29.53 in 0.8 mi North 12.7 mph 25.3 mph 0.04 in Snow Light Snow
11:15 AM 32.0 °F 22.5 °F 30.9 °F 96% 29.53 in 0.2 mi NNE 12.7 mph 20.7 mph 0.01 in Snow Snow
11:35 AM 32.0 °F 21.6 °F 30.7 °F 95% 29.52 in 1.0 mi NNE 15.0 mph 23.0 mph 0.01 in Snow Light Snow
11:55 AM 32.0 °F 22.1 °F 30.7 °F 95% 29.52 in 1.2 mi NNE 13.8 mph 20.7 mph 0.01 in Snow Light Snow
12:15 PM 32.0 °F 23.0 °F 30.9 °F 96% 29.51 in 1.8 mi NNE 11.5 mph 19.6 mph N/A Snow Light Snow
12:35 PM 32.0 °F 22.1 °F 30.7 °F 95% 29.50 in 3.0 mi NNE 13.8 mph 17.3 mph N/A Snow Light Snow
12:55 PM 32.0 °F 22.1 °F 30.7 °F 95% 29.50 in 5.0 mi NNE 13.8 mph 21.9 mph N/A Rain Rain
1:15 PM 32.2 °F 25.0 °F 31.1 °F 96% 29.49 in 1.8 mi North 8.1 mph 18.4 mph 0.01 in Snow Light Snow
1:35 PM 32.2 °F 23.8 °F 31.1 °F 96% 29.49 in 1.0 mi North 10.4 mph 18.4 mph 0.01 in Snow Light Snow
1:55 PM 32.0 °F 22.1 °F 31.1 °F 96% 29.49 in 1.0 mi North 13.8 mph 19.6 mph 0.01 in Snow Light Snow
2:15 PM 32.0 °F 23.0 °F 31.1 °F 96% 29.49 in 0.8 mi North 11.5 mph 18.4 mph 0.01 in Snow Light Snow
2:35 PM 32.0 °F 24.2 °F 31.1 °F 96% 29.49 in 1.2 mi North 9.2 mph 18.4 mph 0.01 in Snow Light Snow
2:55 PM 32.2 °F 24.4 °F 31.5 °F 97% 29.49 in 0.8 mi North 9.2 mph 17.3 mph 0.01 in Snow Light Snow
3:15 PM 32.0 °F 24.8 °F 31.1 °F 96% 29.49 in 1.0 mi North 8.1 mph 17.3 mph N/A Snow Light Snow
3:35 PM 32.0 °F 24.8 °F 31.1 °F 96% 29.49 in 1.2 mi North 8.1 mph 16.1 mph N/A Snow Light Snow
3:55 PM 32.2 °F 25.0 °F 31.1 °F 96% 29.49 in 1.8 mi North 8.1 mph 17.3 mph N/A Snow Light Snow
4:15 PM 32.0 °F 24.2 °F 31.1 °F 96% 29.50 in 1.0 mi North 9.2 mph 17.3 mph N/A Snow Light Snow
4:35 PM 32.0 °F 23.0 °F 30.9 °F 96% 29.50 in 1.8 mi North 11.5 mph 18.4 mph N/A Snow Light Snow
4:55 PM 32.0 °F 24.2 °F 30.9 °F 96% 29.51 in 1.5 mi North 9.2 mph 16.1 mph N/A Snow Light Snow
5:15 PM 32.0 °F 23.0 °F 30.9 °F 96% 29.52 in 3.0 mi North 11.5 mph 17.3 mph N/A Snow Light Snow
5:35 PM 32.0 °F 23.6 °F 31.1 °F 96% 29.52 in 1.5 mi North 10.4 mph - N/A Snow Light Snow
5:55 PM 32.0 °F 24.8 °F 30.9 °F 96% 29.53 in 3.0 mi North 8.1 mph - N/A Snow Light Snow
6:15 PM 32.0 °F 23.0 °F 31.1 °F 96% 29.53 in 3.0 mi North 11.5 mph 19.6 mph N/A Rain Light Rain
6:35 PM 32.0 °F 24.2 °F 31.1 °F 96% 29.54 in 3.0 mi North 9.2 mph 18.4 mph N/A Snow Light Snow
6:55 PM 32.0 °F 23.6 °F 31.1 °F 96% 29.54 in 4.0 mi North 10.4 mph - N/A Rain Light Rain
7:15 PM 32.2 °F 23.8 °F 31.1 °F 96% 29.54 in 5.0 mi North 10.4 mph 16.1 mph N/A Rain Light Rain
7:35 PM 32.4 °F 24.6 °F 31.1 °F 95% 29.53 in 7.0 mi North 9.2 mph - N/A Rain Light Rain
7:55 PM 32.2 °F 24.4 °F 31.1 °F 96% 29.53 in 10.0 mi North 9.2 mph 16.1 mph N/A Rain Light Rain
8:15 PM 32.2 °F 24.4 °F 31.1 °F 96% 29.53 in 5.0 mi North 9.2 mph 17.3 mph N/A Rain Light Rain
8:35 PM 32.4 °F 25.3 °F 31.1 °F 95% 29.54 in 5.0 mi North 8.1 mph 18.4 mph N/A Rain Light Rain
8:55 PM 32.4 °F 25.3 °F 31.1 °F 95% 29.55 in 10.0 mi North 8.1 mph - N/A   Clear
9:15 PM 32.5 °F 26.2 °F 31.1 °F 94% 29.55 in 10.0 mi North 6.9 mph - N/A   Clear
9:35 PM 32.5 °F 27.1 °F 31.1 °F 94% 29.55 in 10.0 mi NNW 5.8 mph - N/A   Clear
9:55 PM 32.4 °F 26.0 °F 31.1 °F 95% 29.55 in 7.0 mi NNW 6.9 mph - N/A   Drizzle
10:15 PM 32.0 °F 26.4 °F 31.6 °F 99% 29.55 in 1.8 mi NNW 5.8 mph - N/A Snow Light Snow
10:35 PM 32.0 °F 26.4 °F 31.8 °F 99% 29.56 in 1.8 mi NW 5.8 mph - N/A Snow Light Snow
10:55 PM 32.0 °F 27.5 °F 31.8 °F 99% 29.55 in 2.5 mi NNW 4.6 mph - N/A Snow Light Snow
11:15 PM 32.0 °F 27.5 °F 31.8 °F 99% 29.56 in 2.5 mi NNW 4.6 mph - N/A Snow Light Snow
11:35 PM 32.0 °F 25.6 °F 31.8 °F 99% 29.56 in 2.5 mi NW 6.9 mph - N/A Snow Light Snow
11:55 PM 32.0 °F 25.6 °F 31.6 °F 99% 29.56 in 2.5 mi NW 6.9 mph - N/A Snow Light Snow